Flag for Morocco Weather past 2 weeks in Tangier, Morocco

Now
48 °F

Passing clouds.


Feels Like: 48 °F
Forecast: 45 / 68 °F
Wind: 1 mph from North

Location: Tanger Aerodrome

Current Time: Mar 2, 2015 at 12:37:21 AM

Latest Report: Mar 2, 2015 at 12:00 AM


Visibility: 5 mi

Pressure: 30.33 "Hg

Humidity: 94%

Dew point: 46 °F

Location of TangierLocation

Historic Weather in Tangier — Graph

°F

Tangier temperature yesterday

Maximum temperature yesterday: 63 °F (at 12:30 PM)
Minimum temperature yesterday: 50 °F (at 9:30 PM)
Average temperature yesterday: 56 °F

Past Weeks' High & Low Weather Summary

 TemperatureHumidityPressure
High63 °F (Feb 20, 1:00 PM)94% (Feb 15, 5:00 AM)30.51 "Hg (Feb 15, 5:00 AM)
Low41 °F (Feb 25, 7:30 AM)52% (Feb 20, 1:00 PM)29.89 "Hg (Feb 21, 4:00 PM)
Average55 °F78%30.24 "Hg
* Reported Feb 14 11:00 PM — Mar 1 11:30 PM, Tangier, Weather by CustomWeather, © 2015

Note: Actual official high and low records may vary slightly from our data, if they occured in-between our weather recording intervals... More about our weather records

Advertising

Tangier weather history for previous 24 hours

 ConditionsComfort  
Time TempWeatherWind HumidityBarometerVisibility
11:30 PM
Sun, Mar 1
50 °FPassing clouds.2 mph94%30.33 "Hg5 mi
11:00 PM52 °FPassing clouds.2 mph88%30.36 "HgN/A
10:30 PM54 °FPassing clouds.2 mph88%30.36 "Hg5 mi
10:00 PM52 °FPassing clouds.2 mph94%30.36 "Hg5 mi
9:30 PM50 °FPassing clouds.2 mph94%30.36 "Hg5 mi
9:00 PM52 °FPassing clouds.No wind88%30.33 "Hg5 mi
8:30 PM52 °FPassing clouds.3 mph88%30.33 "Hg5 mi
7:30 PM52 °FPassing clouds.3 mph88%30.33 "Hg5 mi
7:00 PM54 °FPassing clouds.5 mph82%30.33 "HgN/A
6:30 PM55 °FPassing clouds.3 mph82%30.33 "HgN/A
6:00 PM57 °FPassing clouds.3 mph82%30.30 "HgN/A
5:30 PM59 °FPartly cloudy.7 mph77%30.30 "HgN/A
5:00 PM59 °FBroken clouds.10 mph77%30.30 "HgN/A
4:30 PM59 °FBroken clouds.10 mph82%30.30 "HgN/A
4:00 PM61 °FBroken clouds.9 mph77%30.30 "HgN/A
3:30 PM61 °FScattered clouds.10 mph77%30.33 "HgN/A
3:00 PM61 °FScattered clouds.12 mph77%30.33 "HgN/A
2:30 PM63 °FPartly sunny.12 mph77%30.33 "Hg5 mi
2:00 PM63 °FScattered clouds.14 mph77%30.33 "Hg5 mi
1:30 PM63 °FScattered clouds.14 mph77%30.36 "Hg5 mi
1:00 PM63 °FScattered clouds.14 mph73%30.36 "Hg5 mi
12:30 PM63 °FScattered clouds.13 mph73%30.36 "Hg5 mi
12:00 PM61 °FPartly sunny.14 mph77%30.39 "Hg5 mi
11:30 AM61 °FPartly sunny.12 mph77%30.39 "Hg5 mi
11:00 AM61 °FPartly sunny.10 mph77%30.39 "Hg5 mi
10:30 AM59 °FPartly sunny.9 mph82%30.39 "Hg5 mi
10:00 AM57 °FPartly sunny.9 mph82%30.39 "Hg5 mi
9:30 AM55 °FPartly sunny.10 mph88%30.39 "Hg5 mi
9:00 AM55 °FPartly sunny.9 mph88%30.39 "Hg5 mi
8:30 AM55 °FPartly sunny.9 mph82%30.36 "Hg5 mi
8:00 AM55 °FPartly sunny.9 mph82%30.36 "HgN/A
7:30 AM55 °FPartly sunny.7 mph82%30.36 "HgN/A
7:00 AM55 °FPartly sunny.7 mph82%30.36 "Hg5 mi
6:30 AM55 °FPartly sunny.8 mph82%30.33 "Hg5 mi
6:00 AM55 °FPartly sunny.9 mph82%30.33 "HgN/A
5:30 AM55 °FPassing clouds.8 mph82%30.33 "HgN/A
5:00 AM55 °FPassing clouds.7 mph82%30.30 "HgN/A
4:30 AM55 °FPassing clouds.8 mph82%30.30 "HgN/A
4:00 AM55 °FPassing clouds.8 mph82%30.30 "HgN/A
3:30 AM55 °FPassing clouds.9 mph82%30.30 "HgN/A
3:00 AM55 °FPassing clouds.9 mph82%30.30 "HgN/A
2:30 AM55 °FCool.9 mph82%30.33 "HgN/A
2:00 AM55 °FPassing clouds.10 mph82%30.33 "HgN/A
1:30 AM55 °FPassing clouds.8 mph82%30.33 "HgN/A
1:00 AM55 °FPassing clouds.5 mph82%30.33 "HgN/A
12:30 AM54 °FPassing clouds.7 mph82%30.33 "Hg5 mi
12:00 AM54 °FPassing clouds.9 mph82%30.33 "Hg5 mi
Weather by CustomWeather, © 2015

See weather overviewHow to use our weather pages